Location: Bakov nad Jizerou
(50.4784°N, 14.9394°E)
Time: 06:41:49
(UTC+00:00)

Cosmos 1802 Rocket - Pass Details

Date: 16 June 2021
Orbit: 955 x 1010 km, 82.9° (Epoch: 28 July)

Event Time Altitude Azimuth Distance (km) Brightness Sun altitude
Rises 20:41:04 0° 349° (N) 3,676 8.5 -9.9°
Reaches altitude 10° 20:43:35 10° 350° (N) 2,732 7.6 -10.1°
Maximum altitude 20:49:51 87° 262° (W) 993 4.1 -10.7°
Enters shadow 20:55:55 11° 174° (S) 2,654 5.7 -11.1°
